CPA217 EGNT-EDDF

Flight info

Callsign CPA217
Flight time N/A
Altitude 25000
Route GIRLI P18 GASKO Y250 KEFTE/N0453F230 Y250 RIMTO/N0486F410 UY250 MAMUL L603 DOLAS DCT NAVPI DCT NOLRU DCT DIXAT DIXAT1D
Aircraft A359/H-SDE2E3GHIJ3J4J5LM1ORWXY/LB1D1

Departure

Time N/A
Airport Newcastle International Airport (EGNT)

Arrival

Time 2026-04-14 11:38
Airport Frankfurt Main Airport (EDDF)
Time Latitude Longitude Altitude Speed Heading
2026-04-14 10:26 53.69969 -1.41474 26314 ft 443 kts 153°
2026-04-14 10:26 53.67357 -1.38807 26607 ft 439 kts 153°
2026-04-14 10:26 53.64707 -1.36128 26742 ft 448 kts 153°
2026-04-14 10:26 53.61983 -1.33446 26894 ft 456 kts 156°
2026-04-14 10:27 53.59161 -1.30916 27011 ft 468 kts 149°
2026-04-14 10:27 53.56645 -1.27321 27164 ft 482 kts 134°
2026-04-14 10:27 53.55423 -1.24735 27244 ft 489 kts 124°
2026-04-14 10:27 53.53924 -1.20120 27407 ft 496 kts 115°
2026-04-14 10:28 53.52560 -1.14751 27560 ft 504 kts 110°
2026-04-14 10:28 53.51325 -1.09194 27746 ft 510 kts 109°
2026-04-14 10:28 53.50149 -1.03625 28038 ft 514 kts 108°
2026-04-14 10:28 53.48950 -0.97946 28542 ft 514 kts 109°
2026-04-14 10:29 53.47729 -0.92274 28957 ft 517 kts 109°
2026-04-14 10:29 53.46476 -0.86583 29294 ft 521 kts 109°
2026-04-14 10:29 53.45192 -0.80858 29665 ft 524 kts 110°
2026-04-14 10:29 53.43890 -0.75125 30020 ft 528 kts 110°
2026-04-14 10:30 53.42569 -0.69353 30358 ft 531 kts 110°
2026-04-14 10:30 53.41250 -0.63616 30681 ft 534 kts 110°
2026-04-14 10:30 53.39909 -0.57798 31020 ft 537 kts 110°
2026-04-14 10:30 53.38558 -0.51949 31330 ft 540 kts 110°
2026-04-14 10:31 53.37198 -0.46070 31650 ft 542 kts 110°
2026-04-14 10:31 53.35827 -0.40156 31960 ft 545 kts 110°
2026-04-14 10:31 53.34451 -0.34236 32254 ft 547 kts 110°
2026-04-14 10:31 53.33064 -0.28285 32539 ft 550 kts 110°
2026-04-14 10:32 53.31668 -0.22312 32812 ft 552 kts 110°
2026-04-14 10:32 53.30262 -0.16309 33091 ft 554 kts 110°
2026-04-14 10:32 53.28850 -0.10303 33417 ft 555 kts 110°
2026-04-14 10:32 53.27435 -0.04301 33847 ft 554 kts 110°
2026-04-14 10:33 53.26040 0.01601 34311 ft 550 kts 110°
2026-04-14 10:33 53.24646 0.07476 34989 ft 541 kts 110°
2026-04-14 10:33 53.23256 0.13317 35303 ft 542 kts 110°
2026-04-14 10:33 53.21862 0.19168 35546 ft 543 kts 110°
2026-04-14 10:34 53.19059 0.30890 36194 ft 543 kts 110°
2026-04-14 10:34 53.17659 0.36717 36536 ft 542 kts 110°
2026-04-14 10:34 53.16254 0.42549 36891 ft 541 kts 111°
2026-04-14 10:35 53.14847 0.48375 37210 ft 541 kts 111°
2026-04-14 10:35 53.13440 0.54187 37628 ft 538 kts 111°
2026-04-14 10:35 53.12044 0.59932 38214 ft 532 kts 111°
2026-04-14 10:35 53.10658 0.65621 38628 ft 530 kts 111°
2026-04-14 10:36 53.09270 0.71306 38869 ft 530 kts 111°
2026-04-14 10:36 53.07895 0.76926 39060 ft 531 kts 111°
2026-04-14 10:36 53.06496 0.82627 39285 ft 530 kts 111°
2026-04-14 10:36 53.05100 0.88304 39515 ft 530 kts 111°
2026-04-14 10:37 53.03704 0.93965 39737 ft 529 kts 111°
2026-04-14 10:37 53.02306 0.99617 39953 ft 528 kts 111°
2026-04-14 10:37 53.00910 1.05251 40221 ft 526 kts 111°
2026-04-14 10:37 52.99535 1.10782 40488 ft 524 kts 111°
2026-04-14 10:38 52.98139 1.16384 40661 ft 524 kts 111°
2026-04-14 10:38 52.96745 1.21967 40824 ft 524 kts 111°
2026-04-14 10:38 52.95349 1.27545 40996 ft 524 kts 111°
2026-04-14 10:38 52.93946 1.33134 41120 ft 524 kts 112°
2026-04-14 10:39 52.92543 1.38710 41135 ft 524 kts 112°
2026-04-14 10:39 52.89734 1.49830 41146 ft 523 kts 112°
2026-04-14 10:40 52.86914 1.60936 41147 ft 522 kts 112°
2026-04-14 10:40 52.84109 1.71931 41153 ft 521 kts 112°
2026-04-14 10:41 52.81280 1.82967 41160 ft 521 kts 112°
2026-04-14 10:41 52.78437 1.94000 41159 ft 521 kts 112°
2026-04-14 10:42 52.75586 2.05012 41170 ft 521 kts 112°
2026-04-14 10:42 52.72722 2.16019 41167 ft 521 kts 112°
2026-04-14 10:43 52.69857 2.26978 41171 ft 520 kts 112°
2026-04-14 10:43 52.66982 2.37924 41171 ft 520 kts 112°
2026-04-14 10:44 52.64095 2.48860 41174 ft 520 kts 112°
2026-04-14 10:44 52.61214 2.59723 41177 ft 520 kts 112°
2026-04-14 10:45 52.58310 2.70619 41181 ft 520 kts 113°
2026-04-14 10:45 52.55396 2.81502 41181 ft 520 kts 113°
2026-04-14 10:46 52.52409 2.92328 41185 ft 520 kts 115°
2026-04-14 10:46 52.49287 3.02954 41190 ft 520 kts 115°
2026-04-14 10:47 52.46124 3.13638 41182 ft 519 kts 115°
2026-04-14 10:47 52.42983 3.24299 41182 ft 519 kts 115°
2026-04-14 10:48 52.39845 3.34953 41179 ft 519 kts 115°
2026-04-14 10:48 52.36699 3.45597 41185 ft 519 kts 115°
2026-04-14 10:49 52.33549 3.56204 41190 ft 519 kts 115°
2026-04-14 10:49 52.30403 3.66747 41195 ft 519 kts 115°
2026-04-14 10:50 52.27229 3.77335 41198 ft 519 kts 115°
2026-04-14 10:50 52.24047 3.87904 41198 ft 519 kts 115°
2026-04-14 10:51 52.20851 3.98474 41198 ft 519 kts 115°
2026-04-14 10:51 52.17654 4.09002 41201 ft 518 kts 116°
2026-04-14 10:52 52.14443 4.19526 41193 ft 518 kts 116°
2026-04-14 10:52 52.11224 4.30033 41196 ft 518 kts 116°
2026-04-14 10:53 52.07998 4.40520 41190 ft 518 kts 116°
2026-04-14 10:53 52.04761 4.50994 41187 ft 518 kts 116°
2026-04-14 10:54 52.01531 4.61402 41184 ft 518 kts 116°
2026-04-14 10:54 51.98264 4.71881 41182 ft 518 kts 116°
2026-04-14 10:55 51.94996 4.82321 41182 ft 518 kts 116°
2026-04-14 10:55 51.91745 4.92662 41176 ft 517 kts 116°
2026-04-14 10:56 51.88472 5.03028 41178 ft 515 kts 116°
2026-04-14 10:56 51.85208 5.13325 41187 ft 514 kts 116°
2026-04-14 10:57 51.81932 5.23615 41200 ft 514 kts 116°
2026-04-14 10:57 51.78664 5.33835 41186 ft 514 kts 117°
2026-04-14 10:58 51.75377 5.44073 41187 ft 513 kts 117°
2026-04-14 10:58 51.72084 5.54287 41189 ft 512 kts 117°
2026-04-14 10:59 51.68784 5.64481 41212 ft 512 kts 117°
2026-04-14 10:59 51.65496 5.74595 41207 ft 512 kts 117°
2026-04-14 11:00 51.62190 5.84725 41221 ft 510 kts 117°
2026-04-14 11:00 51.58883 5.94816 41201 ft 509 kts 117°
2026-04-14 11:01 51.55570 6.04885 41202 ft 509 kts 117°
2026-04-14 11:01 51.52253 6.14925 41204 ft 509 kts 117°
2026-04-14 11:02 51.49232 6.25177 41199 ft 508 kts 111°
2026-04-14 11:02 51.46632 6.35646 41168 ft 508 kts 111°
2026-04-14 11:02 51.45332 6.40915 40921 ft 507 kts 111°
2026-04-14 11:03 51.44034 6.46173 40686 ft 507 kts 111°
2026-04-14 11:03 51.42736 6.51424 40441 ft 508 kts 111°
2026-04-14 11:03 51.41427 6.56707 40207 ft 508 kts 111°
2026-04-14 11:03 51.40121 6.61971 39874 ft 506 kts 111°
2026-04-14 11:04 51.38838 6.67129 39316 ft 505 kts 111°
2026-04-14 11:04 51.37536 6.72350 38629 ft 506 kts 111°
2026-04-14 11:04 51.36230 6.77577 37906 ft 504 kts 111°
2026-04-14 11:04 51.34923 6.82796 37040 ft 507 kts 111°
2026-04-14 11:05 51.33609 6.88028 36291 ft 507 kts 111°
2026-04-14 11:05 51.32296 6.93246 35596 ft 507 kts 111°
2026-04-14 11:05 51.31403 6.96789 35101 ft 507 kts 111°
2026-04-14 11:05 51.30079 7.02031 34272 ft 509 kts 111°
2026-04-14 11:06 51.28634 7.07135 33357 ft 511 kts 117°
2026-04-14 11:06 51.26670 7.11952 32473 ft 512 kts 128°
2026-04-14 11:06 51.24248 7.16013 31601 ft 513 kts 139°
2026-04-14 11:06 51.21360 7.19326 30714 ft 511 kts 150°
2026-04-14 11:07 51.18218 7.21967 29694 ft 511 kts 155°
2026-04-14 11:07 51.14982 7.24494 28754 ft 509 kts 155°
2026-04-14 11:07 51.11827 7.26953 28060 ft 502 kts 155°
2026-04-14 11:07 51.08767 7.29400 27429 ft 496 kts 154°
2026-04-14 11:08 51.05717 7.31913 26728 ft 491 kts 153°
2026-04-14 11:08 51.02741 7.34378 26052 ft 473 kts 153°
2026-04-14 11:08 50.99861 7.36759 25410 ft 464 kts 154°
2026-04-14 11:08 50.97000 7.39115 24746 ft 462 kts 154°
2026-04-14 11:09 50.94159 7.41450 24093 ft 459 kts 154°
2026-04-14 11:09 50.91326 7.43774 23390 ft 456 kts 154°
2026-04-14 11:09 50.88517 7.46075 22702 ft 452 kts 154°
2026-04-14 11:10 50.82972 7.50613 21406 ft 443 kts 154°
2026-04-14 11:10 50.80244 7.52837 20749 ft 440 kts 154°
2026-04-14 11:10 50.77566 7.55016 20112 ft 436 kts 154°
2026-04-14 11:10 50.74878 7.57203 19443 ft 433 kts 154°
2026-04-14 11:11 50.72201 7.59377 18780 ft 430 kts 154°
2026-04-14 11:11 50.69551 7.61528 18064 ft 427 kts 154°
2026-04-14 11:11 50.66923 7.63663 17566 ft 423 kts 154°
2026-04-14 11:11 50.64289 7.65793 17055 ft 424 kts 153°
2026-04-14 11:12 50.61667 7.67910 16527 ft 422 kts 153°
2026-04-14 11:12 50.59090 7.69991 16045 ft 419 kts 153°
2026-04-14 11:12 50.56501 7.72082 15568 ft 417 kts 153°
2026-04-14 11:12 50.53930 7.74150 15094 ft 414 kts 153°
2026-04-14 11:13 50.51364 7.76210 14640 ft 411 kts 153°
2026-04-14 11:13 50.48823 7.78249 14162 ft 408 kts 153°
2026-04-14 11:13 50.46300 7.80272 13658 ft 405 kts 153°
2026-04-14 11:13 50.43829 7.82372 13192 ft 402 kts 149°
2026-04-14 11:14 50.41560 7.84896 12808 ft 399 kts 143°
2026-04-14 11:14 50.39383 7.87587 12439 ft 397 kts 142°
2026-04-14 11:14 50.37261 7.90237 12064 ft 390 kts 143°
2026-04-14 11:14 50.35154 7.92861 11706 ft 385 kts 143°
2026-04-14 11:15 50.33060 7.95460 11340 ft 382 kts 143°
2026-04-14 11:15 50.31011 7.98085 11009 ft 379 kts 140°
2026-04-14 11:15 50.29172 8.00933 10790 ft 364 kts 133°
2026-04-14 11:15 50.27635 8.03983 10558 ft 349 kts 125°
2026-04-14 11:16 50.26400 8.07164 10366 ft 336 kts 119°
2026-04-14 11:16 50.25444 8.10420 10151 ft 324 kts 112°
2026-04-14 11:16 50.24750 8.13699 9961 ft 311 kts 106°
2026-04-14 11:16 50.24227 8.16845 9738 ft 287 kts 104°
2026-04-14 11:17 50.23754 8.19833 9676 ft 290 kts 104°
2026-04-14 11:17 50.23264 8.22910 9572 ft 291 kts 104°
2026-04-14 11:17 50.22772 8.25975 9473 ft 292 kts 104°
2026-04-14 11:17 50.22251 8.29037 9372 ft 290 kts 107°
2026-04-14 11:18 50.21549 8.31988 9282 ft 290 kts 115°
2026-04-14 11:18 50.20586 8.34759 9115 ft 290 kts 123°
2026-04-14 11:18 50.19378 8.37260 8914 ft 288 kts 132°
2026-04-14 11:18 50.17949 8.39451 8779 ft 288 kts 141°
2026-04-14 11:19 50.16328 8.41299 8708 ft 289 kts 149°
2026-04-14 11:19 50.14549 8.42764 8597 ft 288 kts 158°
2026-04-14 11:19 50.12683 8.43795 8499 ft 288 kts 166°
2026-04-14 11:19 50.10723 8.44398 8274 ft 286 kts 174°
2026-04-14 11:20 50.08740 8.44495 8013 ft 285 kts 184°
2026-04-14 11:20 50.06778 8.44076 7763 ft 283 kts 194°
2026-04-14 11:20 50.04901 8.43160 7514 ft 283 kts 203°
2026-04-14 11:20 50.03151 8.41774 7257 ft 281 kts 213°
2026-04-14 11:21 50.01586 8.39974 7015 ft 279 kts 223°
2026-04-14 11:21 50.00238 8.37810 6769 ft 278 kts 232°
2026-04-14 11:21 49.99154 8.35380 6529 ft 276 kts 242°
2026-04-14 11:21 49.98331 8.32698 6262 ft 274 kts 251°
2026-04-14 11:22 49.97800 8.29869 6004 ft 272 kts 261°
2026-04-14 11:22 49.97568 8.26969 5741 ft 270 kts 270°
2026-04-14 11:22 49.97633 8.24073 5476 ft 268 kts 279°
2026-04-14 11:22 49.97987 8.21249 5276 ft 265 kts 288°
2026-04-14 11:23 49.98617 8.18558 5145 ft 265 kts 297°
2026-04-14 11:23 49.99500 8.16063 5013 ft 263 kts 306°
2026-04-14 11:23 50.00611 8.13826 4886 ft 261 kts 314°
2026-04-14 11:23 50.01919 8.11890 4750 ft 258 kts 323°
2026-04-14 11:24 50.03165 8.09854 4749 ft 262 kts 307°
2026-04-14 11:24 50.04076 8.07390 4746 ft 264 kts 295°
2026-04-14 11:24 50.04494 8.04653 4747 ft 267 kts 274°
2026-04-14 11:24 50.04299 8.01777 4739 ft 269 kts 261°
2026-04-14 11:25 50.03702 7.99005 4688 ft 272 kts 245°
2026-04-14 11:25 50.02753 7.96461 4551 ft 271 kts 238°
2026-04-14 11:25 50.01701 7.94019 4424 ft 272 kts 237°
2026-04-14 11:25 50.00621 7.91612 4284 ft 271 kts 236°
2026-04-14 11:26 49.99533 7.89226 4159 ft 270 kts 236°
2026-04-14 11:26 49.98445 7.86864 4037 ft 269 kts 236°
2026-04-14 11:26 49.97265 7.84602 3993 ft 270 kts 224°
2026-04-14 11:26 49.95661 7.83106 3999 ft 272 kts 197°
2026-04-14 11:27 49.93795 7.82933 4003 ft 270 kts 168°
2026-04-14 11:27 49.92008 7.83785 4007 ft 269 kts 157°
2026-04-14 11:27 49.90282 7.84884 3998 ft 268 kts 153°
2026-04-14 11:27 49.88783 7.86550 4003 ft 265 kts 130°
2026-04-14 11:28 49.87905 7.88957 4004 ft 260 kts 104°
2026-04-14 11:28 49.87801 7.91712 4001 ft 256 kts 78°
2026-04-14 11:28 49.88271 7.94365 4002 ft 256 kts 69°
2026-04-14 11:28 49.88939 7.96919 4001 ft 255 kts 64°
2026-04-14 11:29 49.89663 7.99438 4005 ft 256 kts 64°
2026-04-14 11:29 49.90367 8.01968 4024 ft 256 kts 66°
2026-04-14 11:29 49.91034 8.04530 4045 ft 256 kts 66°
2026-04-14 11:29 49.91651 8.07032 4066 ft 239 kts 68°
2026-04-14 11:30 49.92208 8.09382 4089 ft 226 kts 68°
2026-04-14 11:30 49.92746 8.11655 4127 ft 223 kts 68°
2026-04-14 11:30 49.93263 8.13828 4147 ft 204 kts 67°
2026-04-14 11:30 49.93724 8.15754 4207 ft 176 kts 67°
2026-04-14 11:31 49.94140 8.17480 4252 ft 168 kts 67°
2026-04-14 11:31 49.94533 8.19116 4304 ft 157 kts 66°
2026-04-14 11:31 49.94906 8.20667 4340 ft 150 kts 66°
2026-04-14 11:31 49.95261 8.22145 4374 ft 143 kts 66°
2026-04-14 11:32 49.95604 8.23575 4386 ft 141 kts 66°
2026-04-14 11:32 49.95950 8.25015 4285 ft 142 kts 66°
2026-04-14 11:32 49.96287 8.26422 4086 ft 137 kts 66°
2026-04-14 11:32 49.96616 8.27793 3893 ft 135 kts 66°
2026-04-14 11:33 49.96942 8.29155 3675 ft 134 kts 65°
2026-04-14 11:33 49.97268 8.30512 3495 ft 134 kts 65°
2026-04-14 11:33 49.97594 8.31873 3296 ft 134 kts 66°
2026-04-14 11:34 49.98244 8.34588 2929 ft 134 kts 66°
2026-04-14 11:34 49.98568 8.35937 2746 ft 133 kts 66°
2026-04-14 11:34 49.98891 8.37291 2551 ft 133 kts 65°
2026-04-14 11:34 49.99215 8.38641 2385 ft 134 kts 67°
2026-04-14 11:35 49.99535 8.39982 2195 ft 133 kts 66°
2026-04-14 11:35 49.99858 8.41326 2019 ft 132 kts 66°
2026-04-14 11:35 50.00177 8.42663 1836 ft 132 kts 66°
2026-04-14 11:35 50.00498 8.44007 1657 ft 132 kts 66°
2026-04-14 11:36 50.00818 8.45338 1460 ft 132 kts 67°
2026-04-14 11:36 50.01135 8.46668 1282 ft 131 kts 66°
2026-04-14 11:36 50.01453 8.47996 1094 ft 132 kts 64°
2026-04-14 11:36 50.01772 8.49329 928 ft 131 kts 65°
2026-04-14 11:37 50.02090 8.50660 749 ft 130 kts 66°
2026-04-14 11:37 50.02407 8.51983 621 ft 131 kts 67°
2026-04-14 11:37 50.02741 8.53376 461 ft 145 kts 66°
2026-04-14 11:37 50.03100 8.54868 368 ft 146 kts 66°
2026-04-14 11:38 50.03392 8.56082 370 ft 92 kts 70°
2026-04-14 11:38 50.03544 8.56724 371 ft 44 kts 70°
2026-04-14 11:38 50.03607 8.57018 371 ft 20 kts 76°
2026-04-14 11:38 50.03581 8.57192 370 ft 16 kts 115°
2026-04-14 11:39 50.03532 8.57353 372 ft 17 kts 115°
2026-04-14 11:39 50.03533 8.57520 373 ft 14 kts 98°
2026-04-14 11:39 50.03487 8.57582 371 ft 9 kts 155°
2026-04-14 11:39 50.03416 8.57624 370 ft 12 kts 166°
2026-04-14 11:40 50.03359 8.57667 374 ft 5 kts 116°
2026-04-14 11:40 50.03362 8.57717 372 ft 5 kts 66°
2026-04-14 11:40 50.03378 8.57777 375 ft 0 kts 68°